Home   Weather   Halden   Past weeks

Flag for Norway Past Weather in Halden, Norway — Yesterday and Last 2 Weeks

Now
31 °F

Chilly.


Feels Like: 31 °F
Forecast: 34 / 46 °F
Wind: 1 mph from East

Location: Stromtangen Fyr

Current Time: Dec 6, 2016 at 7:02:47 am

Latest Report: Dec 6, 2016 at 6:00 am


Visibility: N/A

Pressure: 30.34 "Hg

Humidity: 90%

Dew Point: 28 °F

Location of HaldenLocation

Past Weather in Halden — Graph

°F

Halden Temperature Yesterday

Maximum temperature yesterday: 45 °F (at 3:00 pm)
Minimum temperature yesterday: 36 °F (at 11:00 pm)
Average temperature yesterday: 41 °F

High & Low Weather Summary for the Past Weeks

 TemperatureHumidityPressure
High47 °F (Nov 26, 2:00 pm)99% (Nov 23, 3:00 pm)30.46 "Hg (Nov 23, 3:00 pm)
Low29 °F (Nov 29, 9:00 am)41% (Nov 27, 2:00 pm)29.35 "Hg (Nov 21, 5:00 am)
Average40 °F79%29.98 "Hg
* Reported Nov 21 5:00 am — Dec 6 5:00 am, Halden, Weather by CustomWeather, © 2016

Note: Actual official high and low records may vary slightly from our data, if they occured in-between our weather recording intervals... More about our weather records

Advertising

Halden Weather History for the Previous 24 Hours

Scroll right to see more
 ConditionsComfort  
Time TempWeatherWind HumidityBarometerVisibility
5:00 am
Tue, Dec 6
31 °FChilly.2 mph91%30.33 "HgN/A
4:00 am32 °FChilly.1 mph86%30.32 "HgN/A
3:00 am33 °FChilly.1 mph81%30.29 "HgN/A
2:00 am35 °FChilly.5 mph80%30.27 "HgN/A
1:00 am36 °FChilly.2 mph85%30.24 "HgN/A
12:00 am36 °FChilly.2 mph79%30.22 "HgN/A
11:00 pm
Mon, Dec 5
36 °FChilly.3 mph77%30.20 "HgN/A
10:00 pm39 °FChilly.2 mph72%30.18 "HgN/A
9:00 pm39 °FChilly.2 mph75%30.16 "HgN/A
8:00 pm37 °FChilly.5 mph86%30.13 "HgN/A
7:00 pm37 °FChilly.5 mph86%30.11 "HgN/A
3:00 pm45 °FQuite cool.3 mph67%30.01 "HgN/A
2:00 pm43 °FQuite cool.5 mph77%30.01 "HgN/A
1:00 pm43 °FQuite cool.7 mph77%30.00 "HgN/A
12:00 pm43 °FQuite cool.6 mph78%30.00 "HgN/A
11:00 am43 °FQuite cool.9 mph78%29.99 "HgN/A
10:00 am44 °FQuite cool.10 mph72%29.98 "HgN/A
8:00 am43 °FQuite cool.10 mph79%29.97 "HgN/A
Weather by CustomWeather, © 2016

See weather overviewHow to use our weather pages